Time,TemperatureF,DewpointF,PressureIn,WindDirection,WindDirectionDegrees,WindSpeedMPH,WindSpeedGustMPH,Humidity,HourlyPrecipIn,Conditions,Clouds,dailyrainin,SoftwareType,DateUTC
2013-06-17 00:00:00,42.1,39.0,30.02,WSW,251,0.0,1.0,88,0.00,,,0.01,weatherlink.com 1.10,2013-06-17 06:00:00,
2013-06-17 00:15:00,42.1,38.0,30.04,WSW,250,0.0,0.0,86,0.00,,,0.00,weatherlink.com 1.10,2013-06-17 06:15:00,
2013-06-17 00:30:00,42.4,39.0,30.04,WSW,251,1.0,1.0,88,0.00,,,0.00,weatherlink.com 1.10,2013-06-17 06:30:00,
2013-06-17 00:45:00,42.7,39.0,30.02,WSW,251,0.0,1.0,87,0.00,,,0.00,weatherlink.com 1.10,2013-06-17 06:45:00,
2013-06-17 01:00:00,42.3,39.0,30.02,WSW,251,0.0,0.0,88,0.00,,,0.00,weatherlink.com 1.10,2013-06-17 07:00:00,
2013-06-17 01:15:00,41.4,38.0,30.01,WSW,251,0.0,0.0,88,0.00,,,0.00,weatherlink.com 1.10,2013-06-17 07:15:00,
2013-06-17 01:30:00,40.7,38.0,30.00,WSW,251,0.0,1.0,89,0.00,,,0.00,weatherlink.com 1.10,2013-06-17 07:30:00,
2013-06-17 01:45:00,40.4,38.0,30.01,WSW,251,0.0,1.0,89,0.00,,,0.00,weatherlink.com 1.10,2013-06-17 07:45:00,
2013-06-17 02:00:00,39.9,37.0,30.02,WSW,250,0.0,1.0,90,0.00,,,0.00,weatherlink.com 1.10,2013-06-17 08:00:00,
2013-06-17 02:15:00,40.0,38.0,30.03,WSW,250,0.0,1.0,91,0.00,,,0.00,weatherlink.com 1.10,2013-06-17 08:15:00,
2013-06-17 02:30:00,40.9,37.0,30.01,SSE,167,0.0,1.0,87,0.00,,,0.00,weatherlink.com 1.10,2013-06-17 08:30:00,
2013-06-17 02:45:00,40.9,37.0,30.01,SSE,166,0.0,0.0,87,0.00,,,0.00,weatherlink.com 1.10,2013-06-17 08:45:00,
2013-06-17 03:00:00,40.1,37.0,30.02,SSE,166,0.0,0.0,89,0.00,,,0.00,weatherlink.com 1.10,2013-06-17 09:00:00,
2013-06-17 03:16:00,40.3,38.0,30.00,West,259,5.0,5.0,90,0.00,,,0.00,weatherlink.com 1.10,2013-06-17 09:16:00,
2013-06-17 03:31:00,41.1,38.0,30.00,NW,310,0.0,2.0,87,0.00,,,0.00,weatherlink.com 1.10,2013-06-17 09:31:00,
2013-06-17 03:46:00,40.0,37.0,30.00,NW,310,0.0,0.0,89,0.00,,,0.00,weatherlink.com 1.10,2013-06-17 09:46:00,
2013-06-17 04:01:00,39.1,37.0,30.00,NW,310,0.0,1.0,91,0.00,,,0.00,weatherlink.com 1.10,2013-06-17 10:01:00,
2013-06-17 04:16:00,38.5,36.0,30.00,NW,310,0.0,0.0,91,0.00,,,0.00,weatherlink.com 1.10,2013-06-17 10:16:00,
2013-06-17 04:31:00,37.8,36.0,30.00,NW,309,0.0,1.0,92,0.00,,,0.00,weatherlink.com 1.10,2013-06-17 10:31:00,
2013-06-17 04:46:00,37.2,35.0,30.01,NW,309,0.0,0.0,92,0.00,,,0.00,weatherlink.com 1.10,2013-06-17 10:46:00,
2013-06-17 05:01:00,36.6,35.0,30.01,NW,309,0.0,0.0,92,0.00,,,0.00,weatherlink.com 1.10,2013-06-17 11:01:00,
2013-06-17 05:16:00,36.4,34.0,30.02,WNW,303,0.0,1.0,92,0.00,,,0.00,weatherlink.com 1.10,2013-06-17 11:16:00,
2013-06-17 05:31:00,36.0,34.0,30.02,West,276,0.0,1.0,92,0.00,,,0.00,weatherlink.com 1.10,2013-06-17 11:31:00,
2013-06-17 05:46:00,35.5,33.0,30.02,WSW,248,1.0,1.0,92,0.00,,,0.00,weatherlink.com 1.10,2013-06-17 11:46:00,
2013-06-17 06:01:00,35.2,33.0,30.02,WSW,248,1.0,1.0,92,0.00,,,0.00,weatherlink.com 1.10,2013-06-17 12:01:00,
2013-06-17 06:16:00,35.2,33.0,30.02,WSW,247,0.0,1.0,92,0.00,,,0.00,weatherlink.com 1.10,2013-06-17 12:16:00,
2013-06-17 06:31:00,34.9,33.0,30.03,WSW,247,0.0,1.0,92,0.00,,,0.00,weatherlink.com 1.10,2013-06-17 12:31:00,
2013-06-17 06:46:00,35.1,33.0,30.03,WSW,247,1.0,1.0,93,0.00,,,0.00,weatherlink.com 1.10,2013-06-17 12:46:00,
2013-06-17 07:01:00,36.1,34.0,30.03,WSW,247,0.0,1.0,92,0.00,,,0.00,weatherlink.com 1.10,2013-06-17 13:01:00,
2013-06-17 07:16:00,37.6,35.0,30.03,WSW,245,0.0,1.0,91,0.00,,,0.00,weatherlink.com 1.10,2013-06-17 13:16:00,
2013-06-17 07:31:00,39.1,37.0,30.03,WSW,245,0.0,1.0,90,0.00,,,0.00,weatherlink.com 1.10,2013-06-17 13:31:00,
2013-06-17 07:46:00,40.6,38.0,30.03,WSW,245,0.0,1.0,89,0.00,,,0.00,weatherlink.com 1.10,2013-06-17 13:46:00,
2013-06-17 08:01:00,42.8,40.0,30.02,WSW,245,0.0,1.0,88,0.00,,,0.00,weatherlink.com 1.10,2013-06-17 14:01:00,
2013-06-17 08:16:00,45.9,41.0,30.02,WSW,245,0.0,1.0,83,0.00,,,0.00,weatherlink.com 1.10,2013-06-17 14:16:00,
2013-06-17 08:46:00,48.9,43.0,30.00,WSW,245,0.0,0.0,79,0.00,,,0.00,weatherlink.com 1.10,2013-06-17 14:46:00,
2013-06-17 09:01:00,52.6,40.0,30.00,WSW,245,0.0,1.0,62,0.00,,,0.00,weatherlink.com 1.10,2013-06-17 15:01:00,
2013-06-17 09:16:00,55.9,38.0,30.00,WSW,242,0.0,0.0,51,0.00,,,0.00,weatherlink.com 1.10,2013-06-17 15:16:00,
2013-06-17 09:32:00,58.4,38.0,29.99,ESE,115,2.0,3.0,47,0.00,,,0.00,weatherlink.com 1.10,2013-06-17 15:32:00,
2013-06-17 09:47:00,59.7,37.0,29.98,ESE,102,0.0,2.0,43,0.00,,,0.00,weatherlink.com 1.10,2013-06-17 15:47:00,
2013-06-17 10:02:00,61.8,39.0,29.97,ESE,103,0.0,1.0,44,0.00,,,0.00,weatherlink.com 1.10,2013-06-17 16:02:00,
2013-06-17 10:17:00,63.2,35.0,29.97,ESE,114,1.0,6.0,35,0.00,,,0.00,weatherlink.com 1.10,2013-06-17 16:17:00,
2013-06-17 10:32:00,64.2,31.0,29.97,ESE,105,1.0,7.0,29,0.00,,,0.00,weatherlink.com 1.10,2013-06-17 16:32:00,
2013-06-17 10:47:00,64.5,31.0,29.97,ESE,114,2.0,8.0,28,0.00,,,0.00,weatherlink.com 1.10,2013-06-17 16:47:00,
2013-06-17 11:02:00,66.6,28.0,29.97,East,101,0.0,9.0,23,0.00,,,0.00,weatherlink.com 1.10,2013-06-17 17:02:00,
2013-06-17 11:17:00,67.1,28.0,29.98,East,96,2.0,8.0,23,0.00,,,0.00,weatherlink.com 1.10,2013-06-17 17:17:00,
2013-06-17 11:32:00,67.4,27.0,29.97,ESE,110,10.0,10.0,22,0.00,,,0.00,weatherlink.com 1.10,2013-06-17 17:32:00,
2013-06-17 11:47:00,67.8,23.0,29.97,ESE,109,8.0,11.0,18,0.00,,,0.00,weatherlink.com 1.10,2013-06-17 17:47:00,
2013-06-17 12:02:00,68.0,25.0,29.97,ENE,77,3.0,8.0,20,0.00,,,0.00,weatherlink.com 1.10,2013-06-17 18:02:00,
2013-06-17 12:17:00,67.8,18.0,29.97,ESE,113,5.0,11.0,15,0.00,,,0.00,weatherlink.com 1.10,2013-06-17 18:17:00,
2013-06-17 12:32:00,70.1,26.0,29.97,East,83,1.0,8.0,19,0.00,,,0.00,weatherlink.com 1.10,2013-06-17 18:32:00,
2013-06-17 12:47:00,70.6,25.0,29.95,ESE,107,3.0,7.0,18,0.00,,,0.00,weatherlink.com 1.10,2013-06-17 18:47:00,
2013-06-17 13:02:00,71.9,30.0,29.94,ESE,110,2.0,6.0,21,0.00,,,0.00,weatherlink.com 1.10,2013-06-17 19:02:00,
2013-06-17 13:17:00,71.1,18.0,29.94,ENE,75,11.0,11.0,13,0.00,,,0.00,weatherlink.com 1.10,2013-06-17 19:17:00,
2013-06-17 13:32:00,70.8,19.0,29.93,West,259,2.0,11.0,14,0.00,,,0.00,weatherlink.com 1.10,2013-06-17 19:32:00,
2013-06-17 13:47:00,70.8,25.0,29.93,SE,136,1.0,10.0,18,0.00,,,0.00,weatherlink.com 1.10,2013-06-17 19:47:00,
2013-06-17 14:02:00,72.5,21.0,29.92,NNW,334,0.0,14.0,14,0.00,,,0.00,weatherlink.com 1.10,2013-06-17 20:02:00,
2013-06-17 14:17:00,71.4,21.0,29.91,ESE,118,1.0,18.0,15,0.00,,,0.00,weatherlink.com 1.10,2013-06-17 20:17:00,
2013-06-17 14:32:00,70.7,22.0,29.91,ESE,114,2.0,10.0,16,0.00,,,0.00,weatherlink.com 1.10,2013-06-17 20:32:00,
2013-06-17 14:47:00,68.9,24.0,29.91,ESE,118,2.0,11.0,18,0.00,,,0.00,weatherlink.com 1.10,2013-06-17 20:47:00,
2013-06-17 15:02:00,69.7,23.0,29.91,ESE,105,2.0,9.0,17,0.00,,,0.00,weatherlink.com 1.10,2013-06-17 21:02:00,
2013-06-17 15:17:00,68.4,22.0,29.90,ESE,113,5.0,10.0,17,0.00,,,0.00,weatherlink.com 1.10,2013-06-17 21:17:00,
2013-06-17 15:32:00,67.9,25.0,29.90,ESE,112,1.0,5.0,20,0.00,,,0.00,weatherlink.com 1.10,2013-06-17 21:32:00,
2013-06-17 15:47:00,69.8,24.0,29.89,ESE,110,6.0,11.0,18,0.00,,,0.00,weatherlink.com 1.10,2013-06-17 21:47:00,
2013-06-17 16:03:00,67.3,29.0,29.89,ESE,108,3.0,10.0,24,0.00,,,0.00,weatherlink.com 1.10,2013-06-17 22:03:00,
2013-06-17 16:18:00,65.6,30.0,29.90,East,96,6.0,11.0,26,0.00,,,0.00,weatherlink.com 1.10,2013-06-17 22:18:00,
2013-06-17 16:33:00,65.6,28.0,29.89,ESE,109,0.0,4.0,24,0.00,,,0.00,weatherlink.com 1.10,2013-06-17 22:33:00,
2013-06-17 16:48:00,65.7,27.0,29.89,SSW,196,1.0,11.0,23,0.00,,,0.00,weatherlink.com 1.10,2013-06-17 22:48:00,
2013-06-17 17:03:00,65.3,28.0,29.89,East,79,11.0,13.0,25,0.00,,,0.00,weatherlink.com 1.10,2013-06-17 23:03:00,
2013-06-17 17:18:00,63.8,28.0,29.91,SSW,200,0.0,17.0,26,0.00,,,0.00,weatherlink.com 1.10,2013-06-17 23:18:00,
2013-06-17 17:34:00,64.4,29.0,29.90,South,188,1.0,9.0,26,0.00,,,0.00,weatherlink.com 1.10,2013-06-17 23:34:00,
2013-06-17 17:48:00,64.5,31.0,29.89,East,91,4.0,6.0,29,0.00,,,0.00,weatherlink.com 1.10,2013-06-17 23:48:00,
2013-06-17 18:03:00,64.3,30.0,29.89,East,97,1.0,10.0,28,0.00,,,0.00,weatherlink.com 1.10,2013-06-18 00:03:00,
2013-06-17 18:18:00,64.8,33.0,29.89,ENE,68,0.0,8.0,31,0.00,,,0.00,weatherlink.com 1.10,2013-06-18 00:18:00,
2013-06-17 18:33:00,64.2,30.0,29.89,ESE,110,2.0,7.0,28,0.00,,,0.00,weatherlink.com 1.10,2013-06-18 00:33:00,
2013-06-17 18:48:00,63.2,31.0,29.89,SE,141,2.0,8.0,30,0.00,,,0.00,weatherlink.com 1.10,2013-06-18 00:48:00,
2013-06-17 19:03:00,62.0,32.0,29.90,ESE,110,5.0,9.0,33,0.00,,,0.00,weatherlink.com 1.10,2013-06-18 01:03:00,
2013-06-17 19:18:00,62.4,30.0,29.89,East,94,2.0,7.0,30,0.00,,,0.00,weatherlink.com 1.10,2013-06-18 01:18:00,
2013-06-17 19:33:00,62.4,31.0,29.89,East,93,4.0,5.0,31,0.00,,,0.00,weatherlink.com 1.10,2013-06-18 01:33:00,
2013-06-17 19:48:00,61.8,33.0,29.89,ESE,102,0.0,3.0,34,0.00,,,0.00,weatherlink.com 1.10,2013-06-18 01:48:00,
2013-06-17 20:03:00,60.8,32.0,29.89,ESE,112,0.0,1.0,34,0.00,,,0.00,weatherlink.com 1.10,2013-06-18 02:03:00,
2013-06-17 20:18:00,58.1,34.0,29.89,ESE,112,0.0,1.0,40,0.00,,,0.00,weatherlink.com 1.10,2013-06-18 02:18:00,
2013-06-17 20:33:00,55.9,34.0,29.89,ESE,112,0.0,0.0,44,0.00,,,0.00,weatherlink.com 1.10,2013-06-18 02:33:00,
2013-06-17 20:48:00,53.7,34.0,29.89,ESE,113,0.0,0.0,48,0.00,,,0.00,weatherlink.com 1.10,2013-06-18 02:48:00,
2013-06-17 21:03:00,51.2,34.0,29.89,SW,219,0.0,1.0,53,0.00,,,0.00,weatherlink.com 1.10,2013-06-18 03:03:00,
2013-06-17 21:18:00,49.9,33.0,29.89,SSW,198,0.0,1.0,53,0.00,,,0.00,weatherlink.com 1.10,2013-06-18 03:18:00,
2013-06-17 21:33:00,48.5,33.0,29.90,SSW,198,0.0,0.0,56,0.00,,,0.00,weatherlink.com 1.10,2013-06-18 03:33:00,
2013-06-17 21:48:00,47.5,33.0,29.91,SSW,198,0.0,0.0,57,0.00,,,0.00,weatherlink.com 1.10,2013-06-18 03:48:00,
2013-06-17 22:03:00,46.3,32.0,29.91,SSW,198,0.0,0.0,59,0.00,,,0.00,weatherlink.com 1.10,2013-06-18 04:03:00,
2013-06-17 22:18:00,45.3,34.0,29.92,East,84,0.0,1.0,65,0.00,,,0.00,weatherlink.com 1.10,2013-06-18 04:18:00,
2013-06-17 22:34:00,44.4,34.0,29.92,East,84,0.0,0.0,68,0.00,,,0.00,weatherlink.com 1.10,2013-06-18 04:34:00,
2013-06-17 22:48:00,43.8,35.0,29.92,East,84,0.0,1.0,70,0.00,,,0.00,weatherlink.com 1.10,2013-06-18 04:48:00,
2013-06-17 23:03:00,43.6,35.0,29.92,East,84,0.0,1.0,71,0.00,,,0.00,weatherlink.com 1.10,2013-06-18 05:03:00,
2013-06-17 23:18:00,43.2,34.0,29.93,East,84,0.0,1.0,71,0.00,,,0.00,weatherlink.com 1.10,2013-06-18 05:18:00,
2013-06-17 23:33:00,43.4,36.0,29.92,East,84,0.0,0.0,74,0.00,,,0.00,weatherlink.com 1.10,2013-06-18 05:33:00,
2013-06-17 23:48:00,43.5,36.0,29.92,East,84,0.0,1.0,75,0.00,,,0.00,weatherlink.com 1.10,2013-06-18 05:48:00,